Wind_Speed
26 26 25 24 23 22 22 21 20 21 20 19 19 17 16 15 14 13 13 13 12 12 12 12 12 12 12 12 12 12 12 12 13 13 12 12 12 13 13 13 12 13
25 25 25 24 24 23 22 22 21 21 20 19 18 17 16 15 14 13 13 13 13 13 13 13 13 14 14 13 13 13 13 13 14 15 14 13 13 13 14 13 13 13
25 25 25 25 24 23 22 22 21 20 20 19 17 16 15 14 14 14 14 14 14 14 14 14 14 14 14 14 13 13 13 13 14 15 14 13 13 14 15 14 13 14
25 25 25 24 24 23 22 21 21 20 19 18 16 15 14 14 14 14 14 14 13 13 13 12 12 12 12 13 12 12 12 12 13 14 13 12 12 13 15 15 14 15
25 25 25 24 23 22 21 21 20 19 18 16 15 14 14 14 14 13 12 12 12 11 11 10 10 10 11 11 11 11 10 10 11 13 13 12 12 13 15 15 15 14
26 25 24 24 23 22 21 20 18 17 16 16 15 14 13 13 12 11 11 10 10 9 9 9 9 9 10 10 10 10 10 10 11 12 12 12 12 13 13 14 14 14
26 25 24 24 22 21 19 19 17 16 15 14 14 13 11 11 10 10 9 9 9 9 8 8 9 9 10 10 10 10 10 11 11 12 12 12 12 12 12 12 13 14
26 25 24 23 21 20 18 18 16 15 14 13 12 11 10 9 9 9 9 9 9 9 9 9 10 10 10 10 10 10 11 11 12 12 12 12 12 12 11 12 12 12
26 25 24 22 20 19 18 17 15 14 13 11 10 9 8 8 8 8 8 8 9 9 9 10 10 10 11 11 11 11 11 11 11 12 12 12 11 11 11 12 12 11
26 25 23 21 19 18 17 16 14 13 11 10 8 7 7 7 6 7 7 8 8 8 9 9 10 10 11 11 11 11 11 11 11 12 11 11 11 11 11 11 11 10
26 25 23 21 19 18 17 15 13 11 10 8 7 6 5 5 5 5 6 6 7 8 8 9 10 11 11 11 11 11 12 12 11 11 11 11 11 11 11 11 10 10
26 25 23 21 20 19 17 15 13 11 9 7 5 4 3 3 3 4 4 5 7 8 9 10 11 11 12 12 12 12 12 12 12 12 12 12 12 12 11 11 11 11
26 25 23 22 21 20 18 15 13 11 8 7 5 3 2 1 1 2 3 4 6 8 9 10 11 12 13 13 13 13 12 12 12 12 13 13 12 12 11 11 11 11
27 24 23 24 23 21 18 16 13 11 9 7 5 4 3 1 1 2 3 4 6 8 10 11 12 13 13 13 13 13 12 13 13 13 13 13 13 13 12 11 12 12
26 24 24 26 24 21 19 16 14 12 10 8 7 5 4 3 3 3 3 5 7 9 10 12 13 13 13 13 13 13 13 13 14 13 13 13 13 13 12 12 12 13
26 26 27 27 25 22 20 17 15 13 12 10 9 7 6 5 5 5 5 6 7 9 11 12 13 13 13 13 13 13 14 14 14 14 14 14 14 13 13 13 12 14
28 29 29 27 26 23 21 19 17 15 14 13 11 10 8 8 8 7 6 7 8 10 11 12 13 14 13 13 13 13 14 15 15 15 15 15 14 13 13 13 13 14
31 31 29 28 27 25 22 20 19 17 16 15 13 12 11 10 9 8 7 8 10 11 12 12 13 14 13 13 13 12 13 14 15 15 15 15 14 14 13 14 15 15
32 32 31 30 28 26 24 22 21 20 19 17 15 14 13 12 11 10 9 10 11 12 12 13 13 13 13 13 13 13 13 14 15 16 15 15 15 13 13 15 16 16
33 33 32 31 29 27 26 24 24 22 20 19 18 17 16 14 12 12 11 12 12 13 13 13 13 13 13 13 13 13 13 14 16 17 16 16 15 14 15 17 17 16
34 34 33 32 31 29 28 27 26 24 23 21 20 19 18 15 14 13 13 13 14 14 14 14 13 12 13 13 13 13 14 14 16 17 17 18 18 16 16 16 15 15
35 35 35 34 33 32 31 30 28 27 25 23 22 21 19 17 15 15 15 15 14 15 15 14 12 12 13 13 13 13 14 15 16 17 16 17 17 16 14 13 13 14
37 37 37 36 35 34 33 32 31 29 27 25 24 23 21 18 17 16 16 16 16 15 16 15 12 11 13 13 13 13 14 15 16 16 15 14 14 14 13 12 12 13
40 39 38 37 37 37 36 34 32 30 28 27 25 24 22 20 18 18 18 17 16 15 15 15 13 11 12 13 13 13 14 15 15 14 12 12 12 12 12 12 12 13
40 39 39 39 39 39 37 35 33 31 29 27 26 24 22 21 19 19 19 18 17 16 15 16 14 11 11 13 13 13 13 14 13 12 11 11 11 11 12 12 13 14
39 39 39 40 40 39 37 34 32 31 29 28 26 25 23 21 21 20 20 19 17 16 16 16 15 12 11 12 13 12 13 13 12 12 12 12 11 11 12 13 14 14
Wind_Direction
140 138 136 134 132 130 128 124 121 116 111 107 102 97 91 85 80 74 68 63 58 53 48 45 39 35 34 31 31 31 27 23 22 18 18 19 16 13 9 8 7 5
144 142 139 137 134 132 130 126 122 118 112 107 102 96 91 85 78 72 65 58 52 45 39 35 29 27 25 22 22 23 19 17 16 14 13 12 9 7 6 3 360 358
147 144 141 139 137 134 132 127 122 118 113 107 102 97 91 84 75 67 58 51 45 37 31 26 21 18 15 14 17 16 12 9 9 10 11 7 0 359 1 360 355 355
148 146 144 142 140 136 133 128 123 118 113 108 103 95 87 78 69 61 53 46 40 33 27 21 16 13 10 10 14 13 10 5 360 2 6 3 356 352 354 355 355 355
151 148 146 143 140 137 133 129 124 119 114 108 101 91 82 75 68 60 52 45 39 31 25 18 13 10 8 8 8 7 6 360 353 355 359 360 354 348 348 351 352 351
152 150 147 145 141 139 135 130 125 120 114 107 99 91 84 78 71 62 53 44 37 30 23 17 11 7 5 5 4 1 358 353 349 351 355 354 349 346 347 347 345 344
154 152 150 148 144 141 137 132 128 122 115 109 102 95 88 80 71 59 49 40 34 27 20 14 9 5 4 2 1 356 351 349 348 349 350 348 345 346 345 340 337 337
157 155 153 151 148 145 141 136 132 126 120 113 107 100 91 79 67 54 43 36 30 23 17 10 5 2 360 358 354 351 347 346 346 345 344 342 341 341 337 331 330 331
161 159 158 155 151 149 146 143 139 133 127 121 113 104 92 78 64 51 40 32 25 18 10 4 359 356 353 350 347 344 343 342 340 338 336 335 334 331 327 326 325 323
165 163 161 158 156 157 156 152 147 141 137 131 120 109 96 80 64 49 38 30 20 11 2 356 352 348 345 343 340 337 337 335 333 330 328 327 325 321 319 320 319 315
170 168 166 164 165 167 165 161 158 153 148 141 128 118 103 85 67 49 35 23 11 2 355 348 344 342 339 337 333 331 330 327 325 324 322 321 320 317 316 314 313 310
175 173 172 173 174 176 173 171 169 167 164 157 145 134 120 99 72 45 26 12 359 351 347 341 338 337 333 330 327 325 324 321 318 318 317 317 315 310 308 307 306 304
180 179 179 181 182 183 181 181 181 181 181 176 169 165 161 143 70 27 6 355 347 341 339 336 333 331 327 324 321 319 317 314 311 310 309 310 307 302 301 301 299 298
186 185 186 187 189 189 188 189 192 194 197 197 197 202 210 230 288 328 330 332 334 335 333 330 326 324 320 316 314 312 309 305 301 300 299 300 300 299 298 298 299 301
189 189 191 193 194 195 194 196 200 204 209 213 217 225 235 251 266 276 296 315 325 329 327 324 319 316 313 309 308 305 300 297 296 296 295 295 298 298 296 294 297 301
193 195 197 198 199 200 200 202 207 211 215 221 227 235 244 254 261 267 281 303 317 321 318 315 311 308 306 304 302 299 296 294 294 293 293 294 295 294 292 290 292 297
199 200 201 203 203 204 205 208 213 216 220 226 231 238 247 251 256 263 278 296 307 309 308 306 303 302 301 299 296 294 291 290 290 290 291 293 292 290 290 289 288 291
204 205 205 207 207 209 211 214 218 221 223 229 234 239 246 250 255 263 276 290 296 298 297 297 297 296 295 293 291 287 285 283 283 285 288 290 288 286 287 287 287 290
207 208 208 210 211 213 216 218 221 223 226 231 235 239 244 247 253 261 273 283 288 290 290 290 292 292 290 289 287 283 280 276 277 279 282 284 282 279 279 282 286 291
210 210 212 214 215 217 219 222 224 225 227 232 236 239 242 245 252 262 270 277 281 283 284 285 287 288 286 285 283 281 277 273 274 278 280 280 277 274 276 281 285 288
212 213 214 217 218 220 222 224 225 227 228 232 236 239 240 244 252 261 267 271 275 278 279 281 285 285 284 283 280 279 277 273 273 276 277 279 280 279 280 282 283 284
215 215 216 219 221 222 224 225 227 228 230 233 236 238 239 243 252 260 265 268 270 273 276 280 284 284 282 282 280 279 276 273 274 277 277 280 284 285 282 278 278 281
219 218 219 220 222 224 225 227 229 229 231 233 235 237 239 243 251 259 263 265 267 271 276 280 283 283 282 282 281 279 276 274 277 279 278 279 282 281 278 275 274 277
221 221 220 221 224 226 228 230 230 230 232 235 236 237 240 245 252 257 259 262 266 270 275 279 282 282 280 281 281 278 276 275 277 279 276 274 278 278 276 275 275 277
223 223 223 224 226 230 231 231 232 232 233 235 235 236 240 245 251 255 258 261 265 269 273 277 281 281 277 279 280 276 274 273 274 275 273 272 277 279 279 278 280 284
225 225 226 227 229 231 232 232 232 232 233 234 234 235 239 245 250 253 258 261 264 269 272 275 280 281 278 278 277 274 272 269 265 264 266 270 274 277 281 285 286 288
Height
859 861 862 864 866 868 869 870 870 871 871 872 873 874 875 876 878 879 879 880 880 881 881 881 881 881 881 881 880 880 880 879 879 878 878 877 877 876 876 875 875 874
860 861 863 865 867 868 869 870 871 871 872 872 873 874 875 877 878 878 879 880 880 880 880 881 881 881 880 880 880 879 879 879 878 878 877 876 876 876 875 874 874 873
860 862 864 865 867 869 869 870 871 871 872 873 873 875 876 877 877 878 879 879 880 880 880 880 880 880 880 880 880 879 879 878 878 877 877 876 876 875 874 874 873 873
861 863 864 866 867 869 870 870 871 871 872 873 874 875 875 876 877 877 878 879 879 880 880 880 881 880 880 880 880 879 879 878 878 877 877 876 876 875 874 873 872 872
862 863 865 867 868 869 870 870 871 871 872 873 873 874 875 875 876 877 878 879 879 880 880 880 881 880 880 880 879 879 879 878 878 877 876 875 875 874 873 872 871 871
862 863 865 867 868 870 870 871 871 871 872 872 873 874 875 875 876 877 878 879 880 880 880 880 880 880 880 879 879 879 878 878 877 876 875 874 874 873 872 872 871 870
862 863 865 867 868 869 870 871 871 871 872 872 873 874 874 875 876 877 878 879 879 880 880 880 879 879 879 878 878 878 877 877 876 875 874 873 873 872 871 871 870 869
862 864 866 867 868 869 870 870 871 871 872 872 873 874 874 875 876 877 878 878 879 879 878 878 878 878 878 877 877 876 876 875 874 873 873 872 872 871 871 870 869 868
862 863 865 866 867 869 869 870 870 871 871 872 873 873 873 874 875 876 877 877 877 877 877 877 877 877 876 876 875 875 874 874 873 872 872 871 871 870 869 869 868 867
861 863 864 865 867 868 869 869 870 870 871 872 872 872 873 874 875 875 876 876 876 876 876 876 876 875 875 874 874 873 873 872 872 871 870 870 869 869 868 868 867 866
860 862 863 864 866 867 867 868 869 870 871 871 871 872 872 873 874 874 875 875 875 875 875 875 874 874 873 873 872 872 871 871 870 870 869 869 868 867 867 866 866 865
859 860 862 863 864 865 866 867 868 869 870 870 871 871 872 872 872 873 873 874 874 874 874 873 873 872 872 871 871 870 870 869 869 868 867 867 867 866 865 865 864 863
857 859 860 861 862 863 865 866 867 868 869 869 870 870 871 871 871 872 872 872 873 872 872 871 871 871 870 870 870 869 869 868 867 867 866 865 865 864 864 863 862 862
855 857 858 859 860 861 863 864 865 867 867 868 869 869 869 869 869 870 871 871 871 870 870 870 869 869 869 868 868 867 867 866 866 865 864 864 863 862 862 861 860 860
853 855 855 856 858 859 861 862 863 865 866 866 867 867 868 868 868 869 869 869 869 868 868 868 868 868 867 867 867 866 865 865 864 863 863 862 861 860 860 859 858 857
851 852 853 854 856 857 859 860 861 863 864 864 865 865 866 866 867 867 867 867 866 866 866 866 866 866 866 865 865 864 863 863 862 861 861 860 859 859 858 857 856 855
847 849 850 852 853 855 856 858 859 860 861 862 863 863 864 864 865 865 865 864 864 864 864 864 864 864 864 863 863 862 861 860 860 859 859 858 857 856 856 855 854 853
844 846 848 849 851 853 854 855 857 858 859 859 860 861 862 862 863 863 862 862 862 862 862 862 862 862 861 861 861 860 860 859 858 857 856 856 855 854 854 853 851 850
842 843 845 847 848 850 852 853 854 855 856 857 858 859 859 860 860 860 860 860 860 860 860 860 860 860 859 859 858 858 858 857 856 855 854 854 853 852 852 851 849 848
839 840 842 844 846 848 849 850 851 852 853 854 855 856 857 857 857 857 857 857 857 857 858 857 858 857 857 857 856 856 856 855 854 853 852 851 851 850 849 848 847 846
836 837 839 841 843 845 846 847 848 848 850 851 852 854 854 854 854 854 855 855 855 855 855 855 855 855 855 854 854 854 853 852 851 850 849 849 848 847 847 846 845 844
832 834 836 837 839 841 842 843 844 845 847 848 850 851 851 851 852 851 852 852 852 852 852 852 853 853 852 852 852 851 851 850 849 848 847 846 845 845 845 844 843 843
828 830 832 834 836 837 838 839 841 842 844 845 847 848 848 848 848 848 849 849 849 849 849 849 850 850 850 850 849 849 849 848 847 846 845 844 844 844 843 842 842 841
824 826 828 830 832 833 834 836 838 839 841 842 844 845 845 845 845 845 846 846 846 847 846 846 847 848 847 847 847 847 847 846 845 844 844 843 843 842 842 841 840 839
820 823 825 826 828 829 831 833 835 837 838 839 841 842 842 842 842 842 843 843 843 844 844 843 844 844 845 844 844 844 844 844 843 843 843 842 841 841 840 839 838 837
817 820 821 823 824 826 828 830 832 833 835 836 838 839 839 839 839 839 839 840 841 841 841 841 840 841 842 841 841 841 841 841 841 840 840 840 840 839 838 837 836 835